Location: Hilde
(52.9479°N, 6.4449°E)
Time: 12:03:30
(UTC+00:00)

Cosmos 1953 Rocket - Pass Details

Date: 15 May 2026
Orbit: 597 x 628 km, 82.5° (Epoch: 5 June)

Event Time Altitude Azimuth Distance (km) Brightness Sun altitude
Rises 22:11:17 0° 344° (NNW) 2,885 8.9 -16.0°
Reaches altitude 10° 22:13:36 10° 337° (NNW) 1,971 7.5 -16.1°
Maximum altitude 22:17:41 41° 268° (W) 885 4.4 -16.3°
Enters shadow 22:20:10 21° 208° (SSW) 1,386 5.0 -16.4°
